TimePDT,TemperatureF,Dew PointF,Humidity,Sea Level PressureIn,VisibilityMPH,Wind Direction,Wind SpeedMPH,Gust SpeedMPH,PrecipitationIn,Events,Conditions,WindDirDegrees,DateUTC
12:58 AM,58.3,52.9,82,29.73,10.0,SSE,9.2,-,N/A,,Overcast,160,2013-09-22 07:58:00
1:58 AM,57.6,52.3,83,29.73,10.0,South,8.1,-,N/A,,Overcast,170,2013-09-22 08:58:00
2:58 AM,56.7,52.9,87,29.73,10.0,SSE,8.1,-,N/A,,Overcast,150,2013-09-22 09:58:00
3:17 AM,57.2,53.6,88,29.71,10.0,SSE,9.2,-,N/A,,Drizzle,160,2013-09-22 10:17:00
3:58 AM,56.5,53.2,89,29.72,10.0,South,9.2,-,0.00,Rain,Light Rain,180,2013-09-22 10:58:00
4:08 AM,57.2,53.6,88,29.71,10.0,SSE,9.2,-,N/A,,Light Drizzle,160,2013-09-22 11:08:00
4:24 AM,57.2,53.6,88,29.71,10.0,South,6.9,-,N/A,,Light Drizzle,190,2013-09-22 11:24:00
4:29 AM,57.2,53.6,88,29.71,9.0,South,9.2,-,N/A,Rain,Heavy Rain,180,2013-09-22 11:29:00
4:34 AM,55.4,53.6,94,29.71,9.0,South,8.1,-,N/A,Rain,Heavy Rain,180,2013-09-22 11:34:00
4:39 AM,55.4,53.6,94,29.71,10.0,SSE,10.4,-,N/A,Rain,Light Rain,160,2013-09-22 11:39:00
4:49 AM,55.4,53.6,94,29.70,10.0,SSE,10.4,-,N/A,,Light Drizzle,150,2013-09-22 11:49:00
4:58 AM,55.4,53.8,94,29.71,10.0,SSE,10.4,-,0.01,,Light Drizzle,150,2013-09-22 11:58:00
5:02 AM,55.4,53.6,94,29.70,10.0,SSE,10.4,-,N/A,,Overcast,150,2013-09-22 12:02:00
5:07 AM,55.4,53.6,94,29.70,10.0,SSE,10.4,-,N/A,,Light Drizzle,150,2013-09-22 12:07:00
5:16 AM,55.4,53.6,94,29.70,10.0,SSE,9.2,-,N/A,,Mostly Cloudy,160,2013-09-22 12:16:00
5:34 AM,55.4,53.6,94,29.70,10.0,South,6.9,-,N/A,,Light Drizzle,170,2013-09-22 12:34:00
5:53 AM,55.4,53.6,94,29.70,10.0,SSE,6.9,-,N/A,,Partly Cloudy,160,2013-09-22 12:53:00
5:58 AM,55.0,53.2,94,29.71,10.0,SSE,5.8,-,0.00,,Partly Cloudy,160,2013-09-22 12:58:00
6:27 AM,55.4,51.8,88,29.70,10.0,SSE,8.1,-,N/A,Rain,Light Rain,160,2013-09-22 13:27:00
6:58 AM,55.0,52.3,91,29.71,10.0,South,5.8,-,0.00,,Light Drizzle,170,2013-09-22 13:58:00
7:58 AM,54.9,52.3,91,29.70,10.0,SSE,6.9,-,0.04,Rain,Heavy Rain,160,2013-09-22 14:58:00
8:12 AM,55.4,51.8,88,29.69,10.0,SSE,8.1,-,N/A,,Mostly Cloudy,160,2013-09-22 15:12:00
8:15 AM,55.4,51.8,88,29.69,10.0,SSE,9.2,-,N/A,,Light Drizzle,150,2013-09-22 15:15:00
8:34 AM,55.4,53.6,94,29.67,10.0,SE,6.9,-,N/A,,Mostly Cloudy,130,2013-09-22 15:34:00
8:38 AM,55.4,53.6,94,29.67,10.0,SE,6.9,-,N/A,,Light Drizzle,140,2013-09-22 15:38:00
8:48 AM,55.4,53.6,94,29.67,10.0,SE,8.1,-,N/A,,Overcast,130,2013-09-22 15:48:00
8:58 AM,55.2,53.1,92,29.67,10.0,SE,9.2,-,0.00,,Overcast,140,2013-09-22 15:58:00
9:58 AM,57.0,50.5,79,29.64,10.0,SSE,13.8,-,0.01,,Overcast,150,2013-09-22 16:58:00
10:58 AM,59.4,48.6,67,29.61,10.0,SSE,23.0,35.7,N/A,,Overcast,150,2013-09-22 17:58:00
11:14 AM,59.0,48.2,67,29.59,10.0,SSE,26.5,35.7,N/A,Rain,Light Rain,150,2013-09-22 18:14:00
11:38 AM,57.2,51.8,82,29.58,10.0,SE,15.0,25.3,N/A,,Overcast,140,2013-09-22 18:38:00
11:58 AM,58.6,50.5,74,29.58,10.0,SSE,17.3,25.3,0.01,,Mostly Cloudy,150,2013-09-22 18:58:00
12:28 PM,59.0,50.0,72,29.59,10.0,SSE,17.3,25.3,N/A,Rain,Light Rain,160,2013-09-22 19:28:00
12:31 PM,59.0,50.0,72,29.59,10.0,SSE,17.3,25.3,N/A,Rain,Light Rain,160,2013-09-22 19:31:00
12:39 PM,57.2,50.0,77,29.58,8.0,SSE,17.3,25.3,N/A,,Overcast,150,2013-09-22 19:39:00
12:40 PM,57.2,50.0,77,29.58,8.0,SSE,16.1,25.3,N/A,Rain,Light Rain,150,2013-09-22 19:40:00
12:58 PM,56.1,51.6,85,29.60,10.0,SSE,17.3,-,0.08,Rain,Rain,160,2013-09-22 19:58:00
1:58 PM,55.6,54.1,95,29.62,6.0,SSE,9.2,-,0.19,Rain,Rain,150,2013-09-22 20:58:00
2:24 PM,55.4,55.4,100,29.62,6.0,South,11.5,-,N/A,Rain,Light Rain,180,2013-09-22 21:24:00
2:45 PM,57.2,55.4,94,29.61,10.0,SSE,16.1,20.7,N/A,,Overcast,160,2013-09-22 21:45:00
2:58 PM,56.8,54.9,93,29.62,10.0,SSE,13.8,-,0.06,,Mostly Cloudy,150,2013-09-22 21:58:00
3:58 PM,59.9,55.2,84,29.63,10.0,SSE,15.0,-,N/A,,Mostly Cloudy,160,2013-09-22 22:58:00
4:58 PM,62.4,54.0,74,29.65,10.0,SSE,10.4,-,N/A,,Partly Cloudy,160,2013-09-22 23:58:00
5:19 PM,60.8,53.6,77,29.65,10.0,South,10.4,-,N/A,Rain,Light Rain,190,2013-09-23 00:19:00
5:21 PM,59.0,53.6,82,29.65,7.0,South,11.5,-,N/A,Rain,Light Rain,170,2013-09-23 00:21:00
5:36 PM,57.2,53.6,88,29.68,4.0,SSW,11.5,-,N/A,Rain,Rain,200,2013-09-23 00:36:00
5:41 PM,57.2,55.4,94,29.68,1.2,SW,10.4,-,N/A,Rain,Heavy Rain,220,2013-09-23 00:41:00
5:46 PM,57.2,55.4,94,29.68,0.8,SSW,9.2,-,N/A,Rain,Heavy Rain,210,2013-09-23 00:46:00
5:51 PM,57.2,55.4,94,29.67,0.8,Variable,6.9,-,N/A,Rain,Heavy Rain,0,2013-09-23 00:51:00
5:56 PM,57.2,55.4,94,29.67,2.0,SE,11.5,-,N/A,Rain,Light Rain,130,2013-09-23 00:56:00
5:58 PM,56.5,54.7,94,29.68,2.5,SE,12.7,-,0.38,Rain,Light Rain,140,2013-09-23 00:58:00
6:03 PM,57.2,53.6,88,29.67,8.0,SE,10.4,-,N/A,Rain,Light Rain,130,2013-09-23 01:03:00
6:05 PM,57.2,53.6,88,29.67,10.0,SE,8.1,-,N/A,Rain-Thunderstorm,Light Thunderstorms and Rain,130,2013-09-23 01:05:00
6:08 PM,57.2,53.6,88,29.67,10.0,SE,6.9,-,N/A,Thunderstorm,Thunderstorm,130,2013-09-23 01:08:00
6:14 PM,57.2,53.6,88,29.67,10.0,SSE,9.2,-,N/A,Rain-Thunderstorm,Light Thunderstorms and Rain,150,2013-09-23 01:14:00
6:28 PM,57.2,53.6,88,29.67,10.0,South,10.4,-,N/A,Rain,Rain,170,2013-09-23 01:28:00
6:35 PM,55.4,53.6,94,29.68,10.0,South,8.1,-,N/A,,Mostly Cloudy,170,2013-09-23 01:35:00
6:58 PM,55.2,52.9,92,29.69,10.0,South,6.9,-,0.00,,Mostly Cloudy,170,2013-09-23 01:58:00
7:00 PM,55.4,53.6,94,29.68,10.0,South,5.8,-,N/A,,Light Drizzle,170,2013-09-23 02:00:00
7:05 PM,55.4,53.6,94,29.69,10.0,SSE,8.1,-,N/A,,Light Drizzle,160,2013-09-23 02:05:00
7:09 PM,55.4,53.6,94,29.69,10.0,SSE,13.8,17.3,N/A,,Mostly Cloudy,160,2013-09-23 02:09:00
7:19 PM,55.4,53.6,94,29.69,10.0,SSE,10.4,-,N/A,,Drizzle,160,2013-09-23 02:19:00
7:29 PM,55.4,53.6,94,29.69,10.0,SSE,9.2,-,N/A,,Mostly Cloudy,160,2013-09-23 02:29:00
7:49 PM,53.6,53.6,100,29.70,10.0,SSE,9.2,-,N/A,Rain,Light Rain,150,2013-09-23 02:49:00
7:58 PM,54.1,52.7,95,29.71,10.0,SSE,9.2,-,0.00,,Light Drizzle,160,2013-09-23 02:58:00
7:59 PM,53.6,51.8,94,29.70,10.0,SSE,8.1,-,N/A,,Scattered Clouds,150,2013-09-23 02:59:00
8:29 PM,53.6,51.8,94,29.71,10.0,SSE,8.1,-,N/A,Rain,Light Rain,150,2013-09-23 03:29:00
8:37 PM,53.6,53.6,100,29.71,10.0,SSE,10.4,-,N/A,,Scattered Clouds,150,2013-09-23 03:37:00
8:45 PM,53.6,53.6,100,29.72,10.0,SSE,8.1,-,N/A,,Light Drizzle,160,2013-09-23 03:45:00
8:55 PM,53.6,53.6,100,29.72,10.0,South,8.1,-,N/A,,Mostly Cloudy,170,2013-09-23 03:55:00
8:58 PM,54.3,53.6,97,29.73,10.0,South,8.1,-,0.01,,Mostly Cloudy,170,2013-09-23 03:58:00
9:08 PM,55.4,53.6,94,29.73,10.0,South,10.4,-,N/A,,Light Drizzle,170,2013-09-23 04:08:00
9:16 PM,55.4,53.6,94,29.73,10.0,SSE,11.5,-,N/A,,Mostly Cloudy,160,2013-09-23 04:16:00
9:57 PM,55.4,53.6,94,29.74,10.0,South,8.1,-,N/A,,Light Drizzle,170,2013-09-23 04:57:00
9:58 PM,55.9,53.4,91,29.75,10.0,South,9.2,-,0.00,,Light Drizzle,170,2013-09-23 04:58:00
10:44 PM,55.4,53.6,94,29.76,10.0,South,8.1,-,N/A,,Overcast,170,2013-09-23 05:44:00
10:58 PM,55.2,53.2,93,29.77,10.0,SSE,10.4,-,0.00,,Mostly Cloudy,160,2013-09-23 05:58:00
11:33 PM,55.4,51.8,88,29.76,10.0,SSE,9.2,-,N/A,Rain,Light Rain,150,2013-09-23 06:33:00
11:49 PM,53.6,51.8,94,29.77,10.0,SSE,8.1,-,N/A,,Scattered Clouds,160,2013-09-23 06:49:00
11:58 PM,54.5,52.3,92,29.79,10.0,SSE,8.1,-,0.00,,Scattered Clouds,160,2013-09-23 06:58:00
11:59 PM,55.4,51.8,88,29.78,10.0,SSE,8.1,-,N/A,,Light Drizzle,160,2013-09-23 06:59:00